Time,TemperatureF,DewpointF,PressureIn,WindDirection,WindDirectionDegrees,WindSpeedMPH,WindSpeedGustMPH,Humidity,HourlyPrecipIn,Conditions,Clouds,dailyrainin,SoftwareType,DateUTC
2013-05-07 00:02:00,29.0,26.0,-100.00,NE,46,-999.0,-999.0,90,-99.99,,,-99.99,,2013-05-07 06:02:00,
2013-05-07 00:12:00,29.0,26.0,-100.00,NE,46,-999.0,-999.0,90,-99.99,,,-99.99,,2013-05-07 06:12:00,
2013-05-07 00:22:00,28.0,26.0,-100.00,NE,46,-999.0,-999.0,92,-99.99,,,-99.99,,2013-05-07 06:22:00,
2013-05-07 00:32:00,28.0,25.0,-100.00,NE,46,-999.0,-999.0,91,-99.99,,,-99.99,,2013-05-07 06:32:00,
2013-05-07 00:42:00,28.0,25.0,-100.00,NE,46,-999.0,-999.0,91,-99.99,,,-99.99,,2013-05-07 06:42:00,
2013-05-07 00:52:00,27.0,25.0,-100.00,NE,46,-999.0,-999.0,92,-99.99,,,-99.99,,2013-05-07 06:52:00,
2013-05-07 01:02:00,27.0,25.0,-100.00,NE,46,-999.0,2.0,91,-99.99,,,-99.99,,2013-05-07 07:02:00,
2013-05-07 01:11:00,27.0,25.0,-100.00,NE,46,-999.0,2.0,91,-99.99,,,-99.99,,2013-05-07 07:11:00,
2013-05-07 01:22:00,27.0,25.0,-100.00,NE,46,-999.0,1.0,92,-99.99,,,-99.99,,2013-05-07 07:22:00,
2013-05-07 01:31:00,27.0,25.0,-100.00,NE,46,-999.0,1.0,92,-99.99,,,-99.99,,2013-05-07 07:31:00,
2013-05-07 01:42:00,27.0,25.0,-100.00,NE,46,-999.0,1.0,92,-99.99,,,-99.99,,2013-05-07 07:42:00,
2013-05-07 01:52:00,26.0,24.0,-100.00,NE,46,-999.0,1.0,92,-99.99,,,-99.99,,2013-05-07 07:52:00,
2013-05-07 02:02:00,25.0,24.0,-100.00,NE,46,-999.0,1.0,96,-99.99,,,-99.99,,2013-05-07 08:02:00,
2013-05-07 02:11:00,25.0,24.0,-100.00,NE,46,-999.0,1.0,96,-99.99,,,-99.99,,2013-05-07 08:11:00,
2013-05-07 02:21:00,25.0,24.0,-100.00,NE,46,-999.0,-999.0,96,-99.99,,,-99.99,,2013-05-07 08:21:00,
2013-05-07 02:31:00,25.0,24.0,-100.00,NE,46,-999.0,-999.0,95,-99.99,,,-99.99,,2013-05-07 08:31:00,
2013-05-07 02:42:00,25.0,24.0,-100.00,NE,46,-999.0,-999.0,95,-99.99,,,-99.99,,2013-05-07 08:42:00,
2013-05-07 02:52:00,27.0,24.0,-100.00,NE,46,-999.0,-999.0,89,-99.99,,,-99.99,,2013-05-07 08:52:00,
2013-05-07 03:01:00,28.0,24.0,-100.00,NE,46,-999.0,-999.0,87,-99.99,,,-99.99,,2013-05-07 09:01:00,
2013-05-07 03:11:00,28.0,24.0,-100.00,WSW,256,0.0,-999.0,87,-99.99,,,-99.99,,2013-05-07 09:11:00,
2013-05-07 03:22:00,30.0,26.0,-100.00,WSW,256,0.0,11.0,85,-99.99,,,-99.99,,2013-05-07 09:22:00,
2013-05-07 03:33:00,30.0,26.0,-100.00,WSW,256,4.0,9.0,87,-99.99,,,-99.99,,2013-05-07 09:33:00,
2013-05-07 03:42:00,30.0,26.0,-100.00,West,262,6.0,9.0,87,-99.99,,,-99.99,,2013-05-07 09:42:00,
2013-05-07 03:52:00,31.0,25.0,-100.00,West,274,6.0,13.0,81,-99.99,,,-99.99,,2013-05-07 09:52:00,
2013-05-07 04:03:00,31.0,25.0,-100.00,West,274,6.0,16.0,78,-99.99,,,-99.99,,2013-05-07 10:03:00,
2013-05-07 04:12:00,31.0,25.0,-100.00,WSW,251,5.0,16.0,78,-99.99,,,-99.99,,2013-05-07 10:12:00,
2013-05-07 04:23:00,31.0,25.0,-100.00,WSW,251,5.0,16.0,78,-99.99,,,-99.99,,2013-05-07 10:23:00,
2013-05-07 04:32:00,31.0,24.0,-100.00,WSW,245,10.0,21.0,78,-99.99,,,-99.99,,2013-05-07 10:32:00,
2013-05-07 04:42:00,31.0,24.0,-100.00,WSW,245,13.0,21.0,78,-99.99,,,-99.99,,2013-05-07 10:42:00,
2013-05-07 04:52:00,31.0,24.0,-100.00,West,268,11.0,21.0,76,-99.99,,,-99.99,,2013-05-07 10:52:00,
2013-05-07 05:02:00,31.0,25.0,-100.00,NW,308,9.0,18.0,79,-99.99,,,-99.99,,2013-05-07 11:02:00,
2013-05-07 05:12:00,31.0,25.0,-100.00,West,268,8.0,18.0,79,-99.99,,,-99.99,,2013-05-07 11:12:00,
2013-05-07 05:22:00,31.0,25.0,-100.00,SW,228,10.0,17.0,78,-99.99,,,-99.99,,2013-05-07 11:22:00,
2013-05-07 05:32:00,31.0,24.0,-100.00,West,262,9.0,18.0,76,-99.99,,,-99.99,,2013-05-07 11:32:00,
2013-05-07 05:42:00,31.0,24.0,-100.00,WSW,245,8.0,18.0,76,-99.99,,,-99.99,,2013-05-07 11:42:00,
2013-05-07 05:51:00,31.0,24.0,-100.00,West,274,7.0,16.0,78,-99.99,,,-99.99,,2013-05-07 11:51:00,
2013-05-07 06:02:00,32.0,25.0,-100.00,WSW,245,10.0,16.0,77,-99.99,,,-99.99,,2013-05-07 12:02:00,
2013-05-07 06:11:00,32.0,25.0,-100.00,West,274,8.0,16.0,77,-99.99,,,-99.99,,2013-05-07 12:11:00,
2013-05-07 06:21:00,32.0,25.0,-100.00,West,262,9.0,15.0,77,-99.99,,,-99.99,,2013-05-07 12:21:00,
2013-05-07 06:32:00,32.0,25.0,-100.00,SW,222,8.0,16.0,77,-99.99,,,-99.99,,2013-05-07 12:32:00,
2013-05-07 06:42:00,32.0,25.0,-100.00,West,274,9.0,16.0,77,-99.99,,,-99.99,,2013-05-07 12:42:00,
2013-05-07 06:52:00,32.0,26.0,-100.00,West,274,9.0,13.0,78,-99.99,,,-99.99,,2013-05-07 12:52:00,
2013-05-07 07:02:00,31.0,26.0,-100.00,West,274,8.0,16.0,82,-99.99,,,-99.99,,2013-05-07 13:02:00,
2013-05-07 07:11:00,31.0,26.0,-100.00,West,262,7.0,16.0,82,-99.99,,,-99.99,,2013-05-07 13:11:00,
2013-05-07 07:21:00,32.0,26.0,-100.00,West,268,9.0,16.0,79,-99.99,,,-99.99,,2013-05-07 13:21:00,
2013-05-07 07:32:00,31.0,26.0,-100.00,West,279,6.0,12.0,82,-99.99,,,-99.99,,2013-05-07 13:32:00,
2013-05-07 07:42:00,31.0,26.0,-100.00,West,279,6.0,12.0,82,-99.99,,,-99.99,,2013-05-07 13:42:00,
2013-05-07 07:52:00,32.0,27.0,-100.00,SW,217,4.0,12.0,82,-99.99,,,-99.99,,2013-05-07 13:52:00,
2013-05-07 08:02:00,32.0,26.0,-100.00,WSW,256,8.0,15.0,78,-99.99,,,-99.99,,2013-05-07 14:02:00,
2013-05-07 08:11:00,32.0,26.0,-100.00,West,274,10.0,15.0,78,-99.99,,,-99.99,,2013-05-07 14:11:00,
2013-05-07 08:21:00,32.0,25.0,-100.00,WNW,291,11.0,16.0,76,-99.99,,,-99.99,,2013-05-07 14:21:00,
2013-05-07 08:32:00,34.0,25.0,-100.00,WSW,239,9.0,20.0,71,-99.99,,,-99.99,,2013-05-07 14:32:00,
2013-05-07 08:42:00,34.0,25.0,-100.00,WSW,239,8.0,20.0,71,-99.99,,,-99.99,,2013-05-07 14:42:00,
2013-05-07 08:52:00,36.0,26.0,-100.00,WNW,285,11.0,21.0,67,-99.99,,,-99.99,,2013-05-07 14:52:00,
2013-05-07 09:01:00,36.0,24.0,-100.00,WSW,251,9.0,19.0,63,-99.99,,,-99.99,,2013-05-07 15:01:00,
2013-05-07 09:12:00,36.0,24.0,-100.00,WSW,256,10.0,19.0,63,-99.99,,,-99.99,,2013-05-07 15:12:00,
2013-05-07 09:21:00,36.0,24.0,-100.00,SW,217,8.0,16.0,63,-99.99,,,-99.99,,2013-05-07 15:21:00,
2013-05-07 09:33:00,36.0,24.0,-100.00,West,279,10.0,20.0,62,-99.99,,,-99.99,,2013-05-07 15:33:00,
2013-05-07 09:42:00,36.0,24.0,-100.00,West,268,8.0,20.0,62,-99.99,,,-99.99,,2013-05-07 15:42:00,
2013-05-07 09:53:00,37.0,25.0,-100.00,West,262,9.0,17.0,61,-99.99,,,-99.99,,2013-05-07 15:53:00,
2013-05-07 10:03:00,39.0,24.0,-100.00,West,274,9.0,12.0,55,-99.99,,,-99.99,,2013-05-07 16:03:00,
2013-05-07 10:12:00,39.0,24.0,-100.00,WSW,256,8.0,12.0,55,-99.99,,,-99.99,,2013-05-07 16:12:00,
2013-05-07 10:22:00,39.0,24.0,-100.00,WSW,256,8.0,15.0,54,-99.99,,,-99.99,,2013-05-07 16:22:00,
2013-05-07 10:32:00,41.0,23.0,-100.00,SW,217,5.0,11.0,49,-99.99,,,-99.99,,2013-05-07 16:32:00,
2013-05-07 10:41:00,41.0,23.0,-100.00,WNW,296,5.0,11.0,49,-99.99,,,-99.99,,2013-05-07 16:41:00,
2013-05-07 10:51:00,42.0,25.0,-100.00,WNW,296,5.0,13.0,51,-99.99,,,-99.99,,2013-05-07 16:51:00,
2013-05-07 11:01:00,42.0,25.0,-100.00,WSW,256,8.0,16.0,51,-99.99,,,-99.99,,2013-05-07 17:01:00,
2013-05-07 11:12:00,42.0,25.0,-100.00,West,279,9.0,16.0,51,-99.99,,,-99.99,,2013-05-07 17:12:00,
2013-05-07 11:21:00,42.0,24.0,-100.00,West,279,9.0,14.0,49,-99.99,,,-99.99,,2013-05-07 17:21:00,
2013-05-07 11:31:00,42.0,24.0,-100.00,West,279,9.0,14.0,49,-99.99,,,-99.99,,2013-05-07 17:31:00,
2013-05-07 11:41:00,42.0,24.0,-100.00,West,279,6.0,15.0,50,-99.99,,,-99.99,,2013-05-07 17:41:00,
2013-05-07 11:52:00,43.0,24.0,-100.00,West,274,6.0,13.0,47,-99.99,,,-99.99,,2013-05-07 17:52:00,
2013-05-07 12:01:00,43.0,24.0,-100.00,West,274,6.0,14.0,46,-99.99,,,-99.99,,2013-05-07 18:01:00,
2013-05-07 12:11:00,43.0,24.0,-100.00,West,274,6.0,14.0,46,-99.99,,,-99.99,,2013-05-07 18:11:00,
2013-05-07 12:21:00,46.0,24.0,-100.00,West,268,5.0,13.0,42,-99.99,,,-99.99,,2013-05-07 18:21:00,
2013-05-07 12:31:00,46.0,26.0,-100.00,West,268,5.0,12.0,45,-99.99,,,-99.99,,2013-05-07 18:31:00,
2013-05-07 12:42:00,46.0,26.0,-100.00,NNE,17,3.0,12.0,45,-99.99,,,-99.99,,2013-05-07 18:42:00,
2013-05-07 12:51:00,44.0,24.0,-100.00,NNE,17,3.0,13.0,46,-99.99,,,-99.99,,2013-05-07 18:51:00,
2013-05-07 13:02:00,43.0,23.0,-100.00,WSW,256,6.0,15.0,44,-99.99,,,-99.99,,2013-05-07 19:02:00,
2013-05-07 13:11:00,43.0,23.0,-100.00,West,268,6.0,15.0,44,-99.99,,,-99.99,,2013-05-07 19:11:00,
2013-05-07 13:21:00,43.0,24.0,-100.00,WNW,302,8.0,14.0,47,-99.99,,,-99.99,,2013-05-07 19:21:00,
2013-05-07 13:32:00,45.0,25.0,-100.00,WNW,302,5.0,12.0,45,-99.99,,,-99.99,,2013-05-07 19:32:00,
2013-05-07 13:42:00,45.0,25.0,-100.00,WNW,302,5.0,12.0,45,-99.99,,,-99.99,,2013-05-07 19:42:00,
2013-05-07 13:52:00,45.0,25.0,-100.00,WNW,302,5.0,12.0,45,-99.99,,,-99.99,,2013-05-07 19:52:00,
2013-05-07 14:02:00,47.0,24.0,-100.00,WNW,302,5.0,9.0,39,-99.99,,,-99.99,,2013-05-07 20:02:00,
2013-05-07 14:11:00,45.0,23.0,-100.00,WNW,296,3.0,9.0,41,-99.99,,,-99.99,,2013-05-07 20:11:00,
2013-05-07 14:21:00,47.0,23.0,-100.00,WNW,296,3.0,12.0,38,-99.99,,,-99.99,,2013-05-07 20:21:00,
2013-05-07 14:32:00,47.0,23.0,-100.00,WSW,239,3.0,12.0,38,-99.99,,,-99.99,,2013-05-07 20:32:00,
2013-05-07 14:42:00,47.0,23.0,-100.00,WSW,239,3.0,12.0,38,-99.99,,,-99.99,,2013-05-07 20:42:00,
2013-05-07 14:51:00,48.0,22.0,-100.00,WSW,239,3.0,11.0,35,-99.99,,,-99.99,,2013-05-07 20:51:00,
2013-05-07 15:01:00,48.0,22.0,-100.00,SW,234,3.0,11.0,35,-99.99,,,-99.99,,2013-05-07 21:01:00,
2013-05-07 15:11:00,49.0,23.0,-100.00,SW,234,3.0,9.0,36,-99.99,,,-99.99,,2013-05-07 21:11:00,
2013-05-07 15:22:00,44.0,24.0,-100.00,SW,234,3.0,9.0,45,-99.99,,,-99.99,,2013-05-07 21:22:00,
2013-05-07 15:32:00,44.0,24.0,-100.00,WSW,239,3.0,9.0,45,-99.99,,,-99.99,,2013-05-07 21:32:00,
2013-05-07 15:42:00,46.0,24.0,-100.00,WSW,239,3.0,13.0,41,-99.99,,,-99.99,,2013-05-07 21:42:00,
2013-05-07 15:52:00,46.0,22.0,-100.00,SW,222,4.0,8.0,38,-99.99,,,-99.99,,2013-05-07 21:52:00,
2013-05-07 16:02:00,46.0,22.0,-100.00,SW,222,4.0,8.0,38,-99.99,,,-99.99,,2013-05-07 22:02:00,
2013-05-07 16:13:00,43.0,23.0,-100.00,SW,222,4.0,9.0,45,-99.99,,,-99.99,,2013-05-07 22:13:00,
2013-05-07 16:22:00,48.0,25.0,-100.00,SW,222,4.0,9.0,41,-99.99,,,-99.99,,2013-05-07 22:22:00,
2013-05-07 16:33:00,48.0,25.0,-100.00,West,262,2.0,9.0,41,-99.99,,,-99.99,,2013-05-07 22:33:00,
2013-05-07 16:42:00,44.0,23.0,-100.00,West,262,2.0,12.0,43,-99.99,,,-99.99,,2013-05-07 22:42:00,
2013-05-07 16:52:00,43.0,25.0,-100.00,SW,234,3.0,10.0,50,-99.99,,,-99.99,,2013-05-07 22:52:00,
2013-05-07 17:02:00,43.0,25.0,-100.00,SW,234,3.0,10.0,50,-99.99,,,-99.99,,2013-05-07 23:02:00,
2013-05-07 17:12:00,45.0,27.0,-100.00,WSW,245,5.0,11.0,49,-99.99,,,-99.99,,2013-05-07 23:12:00,
2013-05-07 17:21:00,45.0,25.0,-100.00,West,274,6.0,14.0,45,-99.99,,,-99.99,,2013-05-07 23:21:00,
2013-05-07 17:32:00,45.0,25.0,-100.00,West,274,6.0,14.0,45,-99.99,,,-99.99,,2013-05-07 23:32:00,
2013-05-07 17:42:00,43.0,25.0,-100.00,West,274,6.0,10.0,49,-99.99,,,-99.99,,2013-05-07 23:42:00,
2013-05-07 17:52:00,44.0,25.0,-100.00,West,268,3.0,9.0,48,-99.99,,,-99.99,,2013-05-07 23:52:00,
2013-05-07 18:02:00,44.0,25.0,-100.00,West,268,3.0,9.0,48,-99.99,,,-99.99,,2013-05-08 00:02:00,
2013-05-07 18:11:00,45.0,25.0,-100.00,WSW,245,3.0,11.0,45,-99.99,,,-99.99,,2013-05-08 00:11:00,
2013-05-07 18:21:00,41.0,26.0,-100.00,WSW,245,3.0,9.0,55,-99.99,,,-99.99,,2013-05-08 00:21:00,
2013-05-07 18:32:00,41.0,26.0,-100.00,WSW,245,3.0,9.0,55,-99.99,,,-99.99,,2013-05-08 00:32:00,
2013-05-07 18:42:00,39.0,30.0,-100.00,WSW,245,3.0,6.0,71,-99.99,,,-99.99,,2013-05-08 00:42:00,
2013-05-07 18:51:00,38.0,31.0,-100.00,WSW,245,3.0,3.0,76,-99.99,,,-99.99,,2013-05-08 00:51:00,
2013-05-07 19:02:00,38.0,31.0,-100.00,WSW,245,3.0,3.0,76,-99.99,,,-99.99,,2013-05-08 01:02:00,
2013-05-07 19:11:00,35.0,31.0,-100.00,WSW,245,3.0,4.0,87,-99.99,,,-99.99,,2013-05-08 01:11:00,
2013-05-07 19:21:00,34.0,31.0,-100.00,WSW,245,3.0,4.0,91,-99.99,,,-99.99,,2013-05-08 01:21:00,
2013-05-07 19:32:00,34.0,31.0,-100.00,WSW,245,3.0,4.0,91,-99.99,,,-99.99,,2013-05-08 01:32:00,
2013-05-07 19:42:00,34.0,31.0,-100.00,WSW,245,3.0,4.0,91,-99.99,,,-99.99,,2013-05-08 01:42:00,
2013-05-07 19:52:00,32.0,32.0,-100.00,WSW,245,3.0,4.0,98,-99.99,,,-99.99,,2013-05-08 01:52:00,
2013-05-07 20:02:00,32.0,32.0,-100.00,WSW,245,3.0,4.0,98,-99.99,,,-99.99,,2013-05-08 02:02:00,
2013-05-07 20:12:00,31.0,31.0,-100.00,WSW,245,-999.0,4.0,100,-99.99,,,-99.99,,2013-05-08 02:12:00,
2013-05-07 20:22:00,31.0,31.0,-100.00,WSW,245,-999.0,-999.0,100,-99.99,,,-99.99,,2013-05-08 02:22:00,
2013-05-07 20:32:00,31.0,31.0,-100.00,WSW,245,-999.0,-999.0,100,-99.99,,,-99.99,,2013-05-08 02:32:00,
2013-05-07 20:42:00,31.0,31.0,-100.00,WSW,245,-999.0,-999.0,100,-99.99,,,-99.99,,2013-05-08 02:42:00,
2013-05-07 20:52:00,30.0,30.0,-100.00,WSW,245,-999.0,-999.0,100,-99.99,,,-99.99,,2013-05-08 02:52:00,
2013-05-07 21:02:00,30.0,30.0,-100.00,WSW,245,-999.0,-999.0,100,-99.99,,,-99.99,,2013-05-08 03:02:00,
2013-05-07 21:11:00,30.0,30.0,-100.00,WSW,245,-999.0,-999.0,100,-99.99,,,-99.99,,2013-05-08 03:11:00,
2013-05-07 21:21:00,30.0,30.0,-100.00,WSW,245,-999.0,-999.0,100,-99.99,,,-99.99,,2013-05-08 03:21:00,
2013-05-07 21:32:00,30.0,30.0,-100.00,WSW,245,-999.0,-999.0,100,-99.99,,,-99.99,,2013-05-08 03:32:00,
2013-05-07 21:43:00,30.0,30.0,-100.00,WSW,245,-999.0,-999.0,100,-99.99,,,-99.99,,2013-05-08 03:43:00,
2013-05-07 21:52:00,30.0,30.0,-100.00,WSW,245,-999.0,-999.0,100,-99.99,,,-99.99,,2013-05-08 03:52:00,
2013-05-07 22:02:00,30.0,30.0,-100.00,WSW,245,-999.0,-999.0,100,-99.99,,,-99.99,,2013-05-08 04:02:00,
2013-05-07 22:13:00,31.0,31.0,-100.00,WSW,245,-999.0,-999.0,100,-99.99,,,-99.99,,2013-05-08 04:13:00,
2013-05-07 22:23:00,30.0,30.0,-100.00,WSW,245,-999.0,-999.0,100,-99.99,,,-99.99,,2013-05-08 04:23:00,
2013-05-07 22:33:00,30.0,30.0,-100.00,WSW,245,-999.0,-999.0,100,-99.99,,,-99.99,,2013-05-08 04:33:00,
2013-05-07 22:43:00,29.0,29.0,-100.00,WSW,245,-999.0,-999.0,100,-99.99,,,-99.99,,2013-05-08 04:43:00,
2013-05-07 22:53:00,29.0,29.0,-100.00,WSW,245,-999.0,-999.0,100,-99.99,,,-99.99,,2013-05-08 04:53:00,
2013-05-07 23:02:00,29.0,29.0,-100.00,WSW,245,-999.0,-999.0,100,-99.99,,,-99.99,,2013-05-08 05:02:00,
2013-05-07 23:12:00,29.0,29.0,-100.00,WSW,245,-999.0,-999.0,100,-99.99,,,-99.99,,2013-05-08 05:12:00,
2013-05-07 23:22:00,29.0,29.0,-100.00,WSW,245,-999.0,-999.0,100,-99.99,,,-99.99,,2013-05-08 05:22:00,
2013-05-07 23:32:00,29.0,29.0,-100.00,WSW,245,-999.0,-999.0,100,-99.99,,,-99.99,,2013-05-08 05:32:00,
2013-05-07 23:42:00,29.0,29.0,-100.00,WSW,245,-999.0,-999.0,100,-99.99,,,-99.99,,2013-05-08 05:42:00,
2013-05-07 23:52:00,29.0,29.0,-100.00,WSW,245,-999.0,-999.0,100,-99.99,,,-99.99,,2013-05-08 05:52:00,